Regional Weather Roundup
Issued by NWS Northern Indiana

Home | Current Version | Previous Version | Text Only | Print | Product List | Glossary Off
Versions: 1 2 3 4 5 6 7 8 9 10 11 12 13 14 15 16 17 18 19 20 21 22 23 24 25 26 27 28 29 30 31 32 33 34 35 36 37 38 39 40 41 42 43 44 45 46 47 48 49 50

000
ASUS43 KIWX 021010
RWRIWX

KIWX WEATHER ROUNDUP
NATIONAL WEATHER SERVICE NORTHERN INDIANA
600 AM EDT WED SEP 02 2015

NOTE: "FAIR" INDICATES FEW OR NO CLOUDS BELOW 12,000 FEET WITH NO
SIGNIFICANT WEATHER AND/OR OBSTRUCTIONS TO VISIBILITY.

* THESE STATIONS ARE NOT UNDER NWS QUALITY CONTROL. THEY ALSO MAY NOT
  REPORT WEATHER SUCH AS PRECIPITATION OR FOG.

INZ001>027-021100-
NORTHERN INDIANA

CITY           SKY/WX    TMP DP  RH WIND       PRES   REMARKS
GARY*          PTCLDY    73  68  83 S7        30.04S
VALPARAISO     FOG       67  65  93 CALM      30.06S VSB 3/4
MICHIGAN CITY* CLEAR     70  68  94 S3        30.05S
LAPORTE*       CLOUDY   N/A N/A N/A CALM      30.06F FOG
KNOX*          CLEAR     66  66 100 S5        30.05S
SOUTH BEND     PTCLDY    70  68  93 SW3       30.06S
GOSHEN         PTCLDY    70  66  87 SW3       30.06S
MONTICELLO*    MOCLDY    70  70 100 S3        30.07R
LOGANSPORT*    PTCLDY    64  63  94 S3        30.08S FOG
ROCHESTER*     CLEAR     72  70  94 S3        30.08S
WARSAW*        CLEAR     70  68  94 CALM      30.07S
FORT WAYNE     PTCLDY    68  65  90 S3        30.08S
HUNTINGTON*    CLEAR     68  64  86 CALM      30.08S
PERU/GRISSOM   CLEAR     67  65  95 SW5       30.08R
MARION*        CLEAR     64  59  83 CALM      30.10S

$$
INZ028>050-021100-
CENTRAL INDIANA

CITY           SKY/WX    TMP DP  RH WIND       PRES   REMARKS
LAFAYETTE      CLEAR     67  66  97 CALM      30.07S FOG
KOKOMO*        PTCLDY    66  63  88 SW6       30.09S
MUNCIE*        PTCLDY    69  66  90 SW5       30.10S
INDIANAPOLIS   CLEAR     69  66  90 S6        30.09R

$$
MIZ043>046-050>051-056>058-064>065-071>073-077>080-021100-
SOUTHWEST LOWER MICHIGAN

CITY           SKY/WX    TMP DP  RH WIND       PRES   REMARKS
BATTLE CREEK   CLEAR     70  68  93 SW5       30.05S
BENTON HARBOR  CLEAR     69  67  93 CALM      30.03S
COLDWATER*     PTCLDY    69  68  96 SW5       30.06S
HILLSDALE*     CLEAR     71  70  98 CALM      30.07S
HOLLAND        PTCLDY    76  70  82 SW12      30.02S
GRAND RAPIDS   PTCLDY    72  70  93 S5        30.02S
KALAMAZOO      CLEAR     70  67  90 SW7       30.04F
STURGIS*       CLEAR     66  66 100 CALM      30.06S FOG
THREE RIVERS*  FAIR      67  67 100 S3        30.06S FOG

$$
OHZ001>008-015>018-024>025-021100-
NORTHWEST OHIO

CITY           SKY/WX    TMP DP  RH WIND       PRES   REMARKS
WAUSEON*       FAIR      68  68 100 SW6       30.07S FOG
DEFIANCE       CLEAR     70  67  90 S5        30.07S FOG
FINDLAY        CLEAR     67  64  90 S5        30.07F
TOLEDO EXPRESS CLEAR     67  66  97 CALM      30.06S
TOLEDO METCALF PTCLDY    70  65  84 SW7       30.07S
LIMA           PTCLDY    69  66  90 S5        30.09F

$$
AND FOR LAKE MICHIGAN COASTAL AND OPEN LAKE BUOY OBSERVATIONS

STATION/POSITION TEMP    WIND        PRES    VSBY  WAVE
                 AIR SEA DIR/SP/G                  HT/PER
                 (F)     (DEG/KT/KT) (MB)    (MI)  (FT/S)
CALUMET HARBOR    74     220/  3/  6   N/A
MICHIGAN CITY     74     180/  9/ 11   N/A
BURNS HARBOR      75     210/ 11/ 14 1017.6R
SAINT JOSEPH      75     180/  8/ 11 1017.3S
SOUTH LAKE BUOY   72 70  200/  8/ 10 1015.5          1/ 4
4 MI NW BRIDGMAN  73 72  240/  8/  8   N/A           1/ 3
MICHIGAN CITY     73 72  210/  8/ 10   N/A           1/ 3

$$
&&


USA.gov is the U.S. government's official web portal to all federal, state and local government web resources and services.